Sussex, NJ

7:14 AM EST on November 17, 2019 (GMT -0500)
Sussex

Weather History for KFWN - September, 2019

Change the Weather History Date:

Tuesday, September 10, 2019

  Actual Average Record
Temperature  
Mean Temperature 70 °F -  
Max Temperature 80 °F 75 °F 93 °F (1959)
Min Temperature 62 °F 49 °F 34 °F (1956)
Cooling Degree Days 6    
Growing Degree Days 20 (Base 50)    
Moisture  
Dew Point 61 °F    
Average Humidity 80    
Maximum Humidity 93    
Minimum Humidity 56    
Precipitation  
Precipitation 0.00 in - - ()
Sea Level Pressure  
Sea Level Pressure 30.31 in    
Wind  
Wind Speed 1 mph ()    
Max Wind Speed 8 mph    
Max Gust Speed -    
Visibility 9.8 miles    
Events      
Averages and records for this station are not official NWS values.
T = Trace of Precipitation, MM = Missing Value Source: Averaged Metar Reports

Daily Weather History Graph

Daily Weather History Graph

Search for Another Location

Airport or City:

Astronomy

Sep. 10, 2019 Rise Set
Actual Time 6:33 AM EDT 7:16 PM EDT
Civil Twilight 6:05 AM EDT 7:44 PM EDT
Nautical Twilight 5:32 AM EDT 8:17 PM EDT
Astronomical Twilight 4:58 AM EDT 8:51 PM EDT
Moon 5:53 PM EDT (9/10) 2:54 AM EDT (9/10)
Length of Visible Light 13h 38m
Length of Day
12h 42m
Waxing Gibbous, 89% of the Moon is Illuminated
Sep 10
Waxing Gibbous
Sep 14
Full
Sep 21
Last Quarter
Sep 28
New
Oct 5
First Quarter

Hourly Weather History & Observations

Time (EDT) Temp. Dew Point Humidity Pressure Visibility Wind Dir Wind Speed Gust Speed Precip Events Conditions
12:53 AM 63.0 °F 60.1 °F 90% 30.29 in 10.0 mi Calm Calm - N/A   Overcast
1:02 AM 63.0 °F 60.1 °F 90% 30.29 in 10.0 mi Calm Calm - N/A   Overcast
1:40 AM 64.0 °F 60.1 °F 87% 30.30 in 10.0 mi Calm Calm - N/A   Overcast
1:53 AM 63.0 °F 60.1 °F 90% 30.30 in 10.0 mi Calm Calm - N/A   Overcast
2:09 AM 63.0 °F 60.1 °F 90% 30.31 in 10.0 mi Calm Calm - N/A   Overcast
2:53 AM 64.0 °F 59.0 °F 84% 30.30 in 10.0 mi NNE 4.6 mph - N/A   Overcast
3:53 AM 64.0 °F 57.9 °F 80% 30.31 in 10.0 mi Calm Calm - N/A   Overcast
4:29 AM 63.0 °F 57.9 °F 84% 30.32 in 10.0 mi Calm Calm - N/A   Overcast
4:53 AM 63.0 °F 57.9 °F 84% 30.32 in 10.0 mi Calm Calm - N/A   Overcast
5:53 AM 62.1 °F 59.0 °F 90% 30.33 in 10.0 mi Calm Calm - 0.00 in   Overcast
6:53 AM 62.1 °F 59.0 °F 90% 30.34 in 10.0 mi Calm Calm - N/A   Overcast
7:28 AM 63.0 °F 59.0 °F 87% 30.36 in 10.0 mi Calm Calm - N/A   Overcast
7:53 AM 63.0 °F 59.0 °F 87% 30.35 in 10.0 mi Calm Calm - N/A   Overcast
8:33 AM 64.0 °F 59.0 °F 84% 30.36 in 10.0 mi Calm Calm - N/A   Overcast
8:53 AM 64.0 °F 59.0 °F 84% 30.36 in 10.0 mi Calm Calm - N/A   Overcast
9:38 AM 64.9 °F 60.1 °F 84% 30.37 in 10.0 mi East 3.5 mph - 0.00 in   Overcast
9:53 AM 64.9 °F 60.1 °F 84% 30.36 in 10.0 mi East 3.5 mph - 0.00 in   Mostly Cloudy
10:53 AM 71.1 °F 63.0 °F 75% 30.36 in 10.0 mi Calm Calm - 0.00 in   Mostly Cloudy
11:53 AM 73.0 °F 63.0 °F 71% 30.34 in 10.0 mi Variable 3.5 mph - N/A   Overcast
12:53 PM 77.0 °F 63.0 °F 62% 30.32 in 10.0 mi Variable 6.9 mph - N/A   Overcast
1:53 PM 77.0 °F 60.1 °F 56% 30.30 in 10.0 mi SSW 5.8 mph - N/A   Overcast
2:53 PM 79.0 °F 62.1 °F 56% 30.29 in 10.0 mi Variable 5.8 mph - N/A   Mostly Cloudy
3:53 PM 78.1 °F 62.1 °F 58% 30.27 in 10.0 mi SSW 5.8 mph - N/A   Mostly Cloudy
4:53 PM 78.1 °F 63.0 °F 60% 30.27 in 10.0 mi SSW 8.1 mph - N/A   Overcast
5:53 PM 77.0 °F 63.0 °F 62% 30.26 in 10.0 mi SSW 4.6 mph - N/A   Clear
6:53 PM 75.0 °F 64.0 °F 69% 30.27 in 10.0 mi Calm Calm - N/A   Clear
7:53 PM 69.1 °F 64.0 °F 84% 30.25 in 10.0 mi Calm Calm - N/A   Clear
8:53 PM 68.0 °F 64.0 °F 87% 30.26 in 10.0 mi Calm Calm - N/A   Clear
9:53 PM 64.9 °F 63.0 °F 93% 30.25 in 9.0 mi Calm Calm - N/A   Clear
10:53 PM 64.0 °F 62.1 °F 93% 30.25 in 7.0 mi Calm Calm - N/A   Clear
11:53 PM 64.0 °F 62.1 °F 93% 30.24 in 7.0 mi Calm Calm - N/A   Clear